• In Italy
  • List of Countries
  • For 7 days
  • Water Temperature
  • Satellite Maps
  • Weather Map
  • Weather Widgets
  • user-avatar
    Login

    Hourly Weather Townsville

    Today, 15 November, Thursday

    Time Temperature Precipitation Wind Pressure Humidity
    00:00 +25°C° 0 mm 3 mps 754 mmHg 85%
    01:00 +25°C° 0 mm 3 mps 753 mmHg 87%
    02:00 +25°C° 0 mm 3 mps 753 mmHg 87%
    03:00 +25°C° 0 mm 3 mps 753 mmHg 88%
    04:00 +24°C° 0 mm 3 mps 753 mmHg 90%
    05:00 +25°C° 0 mm 3 mps 754 mmHg 85%
    06:00 +26°C° 0 mm 3 mps 754 mmHg 80%
    07:00 +27°C° 0 mm 3 mps 755 mmHg 76%
    08:00 +29°C° 0 mm 3 mps 755 mmHg 66%
    09:00 +31°C° 0 mm 3 mps 755 mmHg 56%
    10:00 +33°C° 0 mm 3 mps 755 mmHg 46%
    11:00 +34°C° 0 mm 4 mps 754 mmHg 44%
    12:00 +35°C° 0 mm 4 mps 754 mmHg 42%
    13:00 +35°C° 0 mm 4 mps 753 mmHg 40%
    14:00 +35°C° 0 mm 4 mps 753 mmHg 42%
    15:00 +34°C° 0 mm 4 mps 753 mmHg 44%
    16:00 +34°C° 0 mm 4 mps 752 mmHg 46%
    17:00 +32°C° 0 mm 4 mps 753 mmHg 54%
    18:00 +29°C° 0 mm 4 mps 753 mmHg 61%
    19:00 +27°C° 0 mm 3 mps 753 mmHg 69%
    20:00 +27°C° 0 mm 3 mps 754 mmHg 72%
    21:00 +26°C° 0 mm 3 mps 754 mmHg 76%
    22:00 +26°C° 0 mm 3 mps 754 mmHg 79%
    23:00 +25°C° 0 mm 3 mps 754 mmHg 81%

    Tomorrow, 16 November, Friday

    Time Temperature Precipitation Wind Pressure Humidity
    00:00 +25°C° 0 mm 3 mps 754 mmHg 84%
    01:00 +25°C° 0 mm 2 mps 754 mmHg 86%
    02:00 +25°C° 0 mm 2 mps 754 mmHg 88%
    03:00 +24°C° 0 mm 2 mps 754 mmHg 89%
    04:00 +24°C° 0 mm 2 mps 754 mmHg 91%
    05:00 +25°C° 0 mm 2 mps 754 mmHg 86%
    06:00 +26°C° 0 mm 2 mps 754 mmHg 81%
    07:00 +27°C° 0 mm 3 mps 754 mmHg 76%
    08:00 +29°C° 0 mm 3 mps 754 mmHg 66%
    09:00 +32°C° 0 mm 4 mps 754 mmHg 56%
    10:00 +34°C° 0 mm 4 mps 754 mmHg 45%
    11:00 +34°C° 0 mm 4 mps 754 mmHg 43%
    12:00 +35°C° 0 mm 5 mps 753 mmHg 40%
    13:00 +36°C° 0 mm 5 mps 753 mmHg 37%
    14:00 +35°C° 0 mm 5 mps 752 mmHg 38%
    15:00 +34°C° 0 mm 5 mps 752 mmHg 40%
    16:00 +34°C° 0 mm 5 mps 751 mmHg 42%
    17:00 +32°C° 0 mm 4 mps 752 mmHg 50%
    18:00 +29°C° 0 mm 4 mps 752 mmHg 58%
    19:00 +27°C° 0 mm 4 mps 752 mmHg 66%
    20:00 +26°C° 0 mm 4 mps 753 mmHg 70%
    21:00 +26°C° 0 mm 4 mps 753 mmHg 73%
    22:00 +25°C° 0 mm 4 mps 754 mmHg 76%
    23:00 +25°C° 0 mm 3 mps 754 mmHg 79%

    Day after tomorrow, 17 November, Saturday

    Time Temperature Precipitation Wind Pressure Humidity
    00:00 +25°C° 0 mm 3 mps 753 mmHg 82%
    01:00 +24°C° 0 mm 3 mps 753 mmHg 84%
    02:00 +24°C° 0 mm 3 mps 753 mmHg 86%
    03:00 +24°C° 0 mm 3 mps 753 mmHg 88%
    04:00 +22°C° 0 mm 3 mps 752 mmHg 89%
    05:00 +24°C° 0 mm 3 mps 753 mmHg 84%
    06:00 +25°C° 0 mm 3 mps 753 mmHg 79%
    07:00 +26°C° 0 mm 3 mps 754 mmHg 74%
    08:00 +28°C° 0 mm 3 mps 754 mmHg 64%
    09:00 +30°C° 0 mm 4 mps 754 mmHg 53%
    10:00 +34°C° 0 mm 4 mps 754 mmHg 43%
    11:00 +34°C° 0 mm 4 mps 753 mmHg 39%
    12:00 +35°C° 0 mm 4 mps 753 mmHg 36%
    13:00 +36°C° 0 mm 5 mps 752 mmHg 33%
    14:00 +35°C° 0 mm 5 mps 752 mmHg 36%
    15:00 +34°C° 0 mm 5 mps 751 mmHg 38%
    16:00 +34°C° 0 mm 4 mps 751 mmHg 40%
    17:00 +32°C° 0 mm 4 mps 751 mmHg 50%
    18:00 +29°C° 0 mm 4 mps 752 mmHg 59%
    19:00 +27°C° 0 mm 3 mps 752 mmHg 68%
    20:00 +26°C° 0 mm 3 mps 752 mmHg 73%
    21:00 +26°C° 0 mm 3 mps 753 mmHg 77%
    22:00 +25°C° 0 mm 3 mps 753 mmHg 82%
    23:00 +25°C° 0 mm 3 mps 753 mmHg 84%

    18 November, Sunday

    Time Temperature Precipitation Wind Pressure Humidity
    00:00 +24°C° 0 mm 2 mps 752 mmHg 86%
    01:00 +24°C° 0 mm 2 mps 752 mmHg 88%
    02:00 +24°C° 0 mm 2 mps 752 mmHg 89%
    03:00 +24°C° 0 mm 2 mps 752 mmHg 90%
    04:00 +23°C° 0 mm 2 mps 751 mmHg 91%
    05:00 +25°C° 0 mm 2 mps 752 mmHg 85%
    06:00 +26°C° 0 mm 2 mps 752 mmHg 79%
    07:00 +27°C° 0 mm 2 mps 753 mmHg 74%
    08:00 +29°C° 0 mm 3 mps 753 mmHg 64%
    09:00 +31°C° 0 mm 3 mps 753 mmHg 54%
    10:00 +34°C° 0 mm 3 mps 753 mmHg 44%
    11:00 +34°C° 0 mm 4 mps 752 mmHg 41%
    12:00 +35°C° 0 mm 4 mps 752 mmHg 39%
    13:00 +36°C° 0 mm 4 mps 751 mmHg 37%
    14:00 +35°C° 0 mm 5 mps 751 mmHg 40%
    15:00 +34°C° 0 mm 5 mps 750 mmHg 44%
    16:00 +33°C° 0 mm 5 mps 750 mmHg 48%
    17:00 +32°C° 0 mm 5 mps 751 mmHg 58%
    18:00 +29°C° 0 mm 4 mps 751 mmHg 68%
    19:00 +27°C° 0 mm 4 mps 752 mmHg 79%
    20:00 +26°C° 0 mm 4 mps 752 mmHg 81%
    21:00 +26°C° 0 mm 3 mps 753 mmHg 84%
    22:00 +26°C° 0 mm 3 mps 753 mmHg 87%
    23:00 +26°C° 0 mm 3 mps 753 mmHg 87%

    19 November, Monday

    Time Temperature Precipitation Wind Pressure Humidity
    00:00 +25°C° 0 mm 3 mps 752 mmHg 88%
    01:00 +25°C° 0 mm 3 mps 752 mmHg 88%
    02:00 +25°C° 0 mm 4 mps 752 mmHg 88%
    03:00 +25°C° 0 mm 4 mps 752 mmHg 88%
    04:00 +25°C° 0 mm 4 mps 752 mmHg 87%
    05:00 +26°C° 0.1 mm 4 mps 752 mmHg 83%
    06:00 +26°C° 0.1 mm 4 mps 753 mmHg 79%
    07:00 +27°C° 0.1 mm 5 mps 753 mmHg 75%
    08:00 +28°C° 0 mm 5 mps 754 mmHg 69%
    09:00 +29°C° 0 mm 5 mps 754 mmHg 63%
    10:00 +30°C° 0 mm 5 mps 754 mmHg 57%
    11:00 +33°C° 0 mm 5 mps 753 mmHg 52%
    12:00 +34°C° 0 mm 5 mps 753 mmHg 47%
    13:00 +35°C° 0 mm 5 mps 752 mmHg 42%
    14:00 +34°C° 0 mm 5 mps 752 mmHg 44%
    15:00 +34°C° 0 mm 5 mps 752 mmHg 47%
    16:00 +33°C° 0 mm 5 mps 751 mmHg 49%
    17:00 +30°C° 0 mm 5 mps 752 mmHg 59%
    18:00 +29°C° 0 mm 5 mps 753 mmHg 69%
    19:00 +27°C° 0 mm 5 mps 753 mmHg 79%
    20:00 +26°C° 0 mm 5 mps 754 mmHg 81%
    21:00 +26°C° 0 mm 5 mps 754 mmHg 83%
    22:00 +26°C° 0 mm 5 mps 754 mmHg 85%
    23:00 +26°C° 0.1 mm 5 mps 754 mmHg 86%

    20 November, Tuesday

    Time Temperature Precipitation Wind Pressure Humidity
    00:00 +25°C° 0.1 mm 4 mps 754 mmHg 86%
    01:00 +25°C° 0.1 mm 4 mps 753 mmHg 86%
    02:00 +25°C° 0.1 mm 4 mps 753 mmHg 88%
    03:00 +25°C° 0.1 mm 4 mps 753 mmHg 89%
    04:00 +23°C° 0.1 mm 4 mps 753 mmHg 90%
    05:00 +25°C° 0 mm 4 mps 753 mmHg 87%
    06:00 +26°C° 0 mm 4 mps 754 mmHg 83%
    07:00 +26°C° 0 mm 4 mps 754 mmHg 80%
    08:00 +28°C° 0.1 mm 5 mps 754 mmHg 74%
    09:00 +29°C° 0.1 mm 5 mps 754 mmHg 69%
    10:00 +30°C° 0.1 mm 5 mps 754 mmHg 63%
    11:00 +32°C° 0.3 mm 5 mps 754 mmHg 61%
    12:00 +32°C° 0.3 mm 6 mps 753 mmHg 58%
    13:00 +33°C° 0.3 mm 6 mps 752 mmHg 55%
    14:00 +32°C° 0.1 mm 6 mps 752 mmHg 57%
    15:00 +32°C° 0.1 mm 6 mps 752 mmHg 59%
    16:00 +30°C° 0.1 mm 6 mps 751 mmHg 61%
    17:00 +29°C° 0.1 mm 6 mps 752 mmHg 67%
    18:00 +28°C° 0.1 mm 5 mps 752 mmHg 74%
    19:00 +26°C° 0.1 mm 5 mps 753 mmHg 81%
    20:00 +26°C° 0.1 mm 5 mps 753 mmHg 82%
    21:00 +26°C° 0.1 mm 5 mps 753 mmHg 84%
    22:00 +25°C° 0.1 mm 5 mps 754 mmHg 86%
    23:00 +25°C° 0.1 mm 5 mps 753 mmHg 86%
    Show more